Total_Precipitation_Accumulation
0.01 0.00 0.00 0.00 0.00 0.00 0.00 0.00 0.00 0.00 0.00 0.00 0.00 0.00 0.00 0.00 0.00 0.00 0.00 0.00 0.00 0.00 0.00 0.00 0.00 0.00 0.00 0.00 0.00 0.00 0.00 0.01 0.00 0.00 0.00 0.00 0.00 0.00 0.00 0.00 0.00 0.00
0.05 0.03 0.01 0.01 0.00 0.00 0.00 0.00 0.00 0.00 0.00 0.00 0.00 0.00 0.00 0.00 0.00 0.00 0.00 0.00 0.00 0.00 0.00 0.00 0.00 0.00 0.00 0.00 0.00 0.00 0.00 0.00 0.00 0.00 0.00 0.00 0.00 0.00 0.00 0.00 0.00 0.00
0.06 0.08 0.05 0.00 0.00 0.00 0.05 0.08 0.03 0.01 0.00 0.00 0.00 0.00 0.00 0.00 0.00 0.00 0.00 0.00 0.00 0.00 0.00 0.00 0.00 0.00 0.00 0.00 0.00 0.00 0.00 0.00 0.00 0.00 0.00 0.00 0.00 0.00 0.00 0.00 0.00 0.00
0.17 0.08 0.08 0.03 0.04 0.01 0.01 0.01 0.00 0.00 0.00 0.00 0.00 0.00 0.00 0.00 0.00 0.00 0.00 0.00 0.00 0.00 0.00 0.00 0.00 0.00 0.00 0.00 0.00 0.00 0.00 0.00 0.00 0.00 0.00 0.00 0.00 0.00 0.00 0.00 0.00 0.00
0.14 0.15 0.49 0.37 0.19 0.08 0.10 0.11 0.08 0.03 0.00 0.00 0.00 0.00 0.00 0.00 0.00 0.00 0.00 0.00 0.00 0.00 0.00 0.00 0.00 0.00 0.00 0.00 0.00 0.00 0.00 0.00 0.00 0.00 0.00 0.00 0.00 0.00 0.00 0.00 0.00 0.00
0.42 0.23 0.12 0.06 0.05 0.03 0.01 0.01 0.00 0.00 0.00 0.00 0.00 0.00 0.00 0.00 0.00 0.00 0.00 0.00 0.00 0.00 0.00 0.00 0.00 0.00 0.00 0.00 0.00 0.00 0.00 0.00 0.00 0.00 0.00 0.00 0.00 0.00 0.00 0.00 0.00 0.00
0.26 0.06 0.02 0.02 0.01 0.00 0.00 0.00 0.00 0.00 0.00 0.00 0.00 0.00 0.00 0.00 0.00 0.00 0.00 0.00 0.00 0.00 0.00 0.00 0.00 0.00 0.00 0.00 0.00 0.00 0.00 0.00 0.00 0.00 0.00 0.00 0.00 0.00 0.00 0.00 0.00 0.00
0.04 0.22 0.08 0.00 0.00 0.00 0.00 0.00 0.00 0.00 0.00 0.00 0.00 0.00 0.00 0.00 0.00 0.00 0.00 0.00 0.00 0.00 0.00 0.00 0.00 0.00 0.00 0.00 0.00 0.00 0.00 0.00 0.00 0.00 0.00 0.00 0.00 0.00 0.00 0.00 0.00 0.00
0.03 0.04 0.05 0.02 0.00 0.00 0.00 0.00 0.00 0.00 0.00 0.00 0.00 0.00 0.00 0.00 0.00 0.00 0.00 0.00 0.00 0.00 0.00 0.00 0.00 0.00 0.00 0.00 0.00 0.00 0.00 0.00 0.00 0.00 0.00 0.00 0.00 0.00 0.00 0.00 0.00 0.00
0.06 0.01 0.02 0.07 0.00 0.00 0.00 0.00 0.00 0.00 0.00 0.00 0.00 0.00 0.00 0.00 0.02 0.00 0.00 0.00 0.00 0.00 0.00 0.00 0.00 0.00 0.00 0.00 0.00 0.00 0.00 0.00 0.00 0.00 0.00 0.00 0.00 0.00 0.00 0.00 0.00 0.00
0.20 0.17 0.08 0.13 0.13 0.03 0.00 0.00 0.00 0.00 0.00 0.01 0.00 0.00 0.01 0.00 0.00 0.00 0.00 0.00 0.00 0.00 0.00 0.00 0.00 0.00 0.00 0.00 0.00 0.00 0.00 0.00 0.00 0.00 0.00 0.00 0.00 0.00 0.00 0.00 0.00 0.00
0.51 0.52 0.60 0.33 0.17 0.26 0.36 0.27 0.11 0.14 0.15 0.08 0.04 0.00 0.00 0.00 0.00 0.00 0.00 0.00 0.00 0.00 0.00 0.00 0.00 0.00 0.01 0.00 0.00 0.01 0.00 0.00 0.00 0.00 0.00 0.00 0.00 0.00 0.00 0.00 0.00 0.00
0.20 0.31 0.42 0.24 0.56 0.30 0.28 0.24 0.26 0.20 0.14 0.13 0.17 0.10 0.04 0.02 0.02 0.04 0.04 0.06 0.07 0.08 0.10 0.09 0.08 0.04 0.04 0.02 0.03 0.00 0.00 0.00 0.00 0.00 0.01 0.00 0.00 0.00 0.00 0.00 0.00 0.00
0.55 0.36 0.46 0.33 0.60 0.55 0.58 0.52 0.42 0.34 0.78 0.70 0.67 0.28 0.41 0.45 0.55 0.25 0.47 0.21 0.20 0.28 0.20 0.26 0.17 0.17 0.18 0.04 0.02 0.03 0.03 0.02 0.01 0.01 0.00 0.00 0.00 0.00 0.01 0.00 0.00 0.01
1.38 0.96 0.59 0.48 0.75 0.59 0.68 0.73 0.48 0.52 0.65 1.10 0.73 0.65 0.51 0.47 0.51 0.43 0.31 0.49 0.41 0.43 0.27 0.20 0.22 0.19 0.14 0.16 0.14 0.04 0.04 0.02 0.01 0.00 0.00 0.00 0.00 0.01 0.01 0.03 0.12 0.11
1.06 0.73 0.52 0.45 0.34 0.36 0.21 0.24 0.25 0.31 0.27 0.31 0.21 0.27 0.33 0.41 0.52 0.49 0.38 0.36 0.29 0.28 0.26 0.26 0.31 0.26 0.22 0.22 0.20 0.21 0.11 0.15 0.07 0.05 0.02 0.00 0.01 0.03 0.09 0.25 0.43 0.21
0.61 0.44 0.49 0.24 0.16 0.13 0.16 0.18 0.12 0.10 0.09 0.10 0.36 0.29 0.26 0.43 0.16 0.08 0.13 0.11 0.08 0.06 0.07 0.09 0.10 0.06 0.05 0.04 0.03 0.02 0.03 0.03 0.08 0.15 0.12 0.04 0.02 0.06 0.03 0.15 0.54 0.42
0.67 0.35 0.38 0.35 0.28 0.20 0.84 0.12 0.07 0.22 0.22 0.20 0.24 0.13 0.14 0.16 0.16 0.20 0.11 0.11 0.07 0.06 0.04 0.04 0.01 0.01 0.01 0.00 0.00 0.00 0.00 0.02 0.01 0.02 0.02 0.02 0.02 0.02 0.09 0.10 0.17 0.15
0.02 0.15 0.35 0.44 0.16 0.20 0.15 1.15 0.72 0.16 0.20 0.10 0.07 0.05 0.07 0.02 0.07 0.11 0.16 0.18 0.10 0.05 0.03 0.03 0.05 0.03 0.03 0.02 0.01 0.01 0.01 0.01 0.01 0.02 0.00 0.00 0.00 0.05 0.06 0.00 0.05 0.12
0.01 0.00 0.02 0.01 0.01 0.03 0.02 0.04 0.06 0.08 0.17 0.11 0.07 0.08 0.05 0.05 0.04 0.05 0.03 0.05 0.10 0.09 0.05 0.10 0.57 0.23 0.05 0.01 0.01 0.03 0.04 0.04 0.03 0.02 0.01 0.02 0.03 0.06 0.03 0.01 0.05 0.02
0.00 0.01 0.03 0.02 0.02 0.05 0.02 0.05 0.02 0.02 0.02 0.06 0.07 0.08 0.12 0.11 0.16 0.09 0.06 0.07 0.10 0.04 0.14 0.51 0.77 0.01 0.02 0.01 0.01 0.01 0.01 0.01 0.03 0.02 0.08 0.07 0.08 0.02 0.10 0.02 0.15 0.03
0.09 0.02 0.09 0.10 0.02 0.02 0.07 0.12 0.19 0.31 0.33 0.35 0.29 0.12 0.06 0.04 0.12 0.21 0.12 0.12 0.11 0.27 0.09 0.05 0.25 0.03 0.02 0.01 0.00 0.02 0.01 0.02 0.01 0.05 0.08 0.05 0.10 0.10 0.01 0.00 0.01 0.02
0.02 0.08 0.23 0.09 0.01 0.00 0.00 0.00 0.01 0.02 0.05 0.05 0.10 0.10 0.08 0.06 0.07 0.10 0.15 0.20 0.61 0.12 0.05 0.22 0.19 0.03 0.00 0.00 0.00 0.00 0.04 0.03 0.01 0.06 0.04 0.03 0.06 0.09 0.17 0.02 0.02 0.08
0.07 0.33 0.03 0.00 0.00 0.00 0.00 0.00 0.00 0.00 0.01 0.01 0.07 0.25 0.22 0.31 0.35 0.40 0.30 0.28 0.27 0.24 0.23 0.29 0.22 0.13 0.02 0.00 0.00 0.00 0.23 0.15 0.17 0.24 0.19 0.07 0.14 0.13 0.08 0.08 0.13 0.02
0.05 0.01 0.02 0.01 0.03 0.02 0.01 0.01 0.00 0.00 0.01 0.01 0.00 0.01 0.01 0.08 0.02 0.02 0.05 0.10 0.08 0.07 0.04 0.09 0.17 0.10 0.04 0.01 0.02 0.00 0.08 0.09 0.16 0.05 0.16 0.17 0.08 0.08 0.07 0.11 0.19 0.10
0.00 0.01 0.13 0.10 0.19 0.16 0.28 0.11 0.00 0.00 0.01 0.00 0.01 0.01 0.02 0.03 0.01 0.00 0.04 0.02 0.04 0.11 0.07 0.15 0.10 0.18 0.10 0.06 0.01 0.01 0.01 0.09 0.07 0.09 0.11 0.32 0.19 0.24 0.04 0.01 0.16 0.46